Weather in Medyanki Tatarskie

Russia / Tyumen Oblast     58°08′39″N   68°13′09″E
temp.,
°C
wind,
m/s
gust,
m/s
humid.,
%
clouds,
%
prec.,
mm/h
press.,
hPa
HPBL,
m
12 may, wed
wed1223:00+15w344363 0.0 102458
02:00+15nw41053100 0.0 1023353
05:00+12n4987100 0.0 1025496
08:00+13nnw585798 0.0 1025708
11:00+15nnw6832100 0.0 10261211
14:00+18nnw6831100 0.0 10251748
17:00+19nnw573588 0.0 10251840
20:00+17nw484799 0.0 1024387
13 may, thu
thu1323:00+14w2257100 0.0 102364
02:00+13wsw4106561 0.0 1021218
05:00+13wnw5127029 0.0 1021334
08:00+18nnw6105993 0.0 1021774
11:00+18nnw5105781 0.0 10221052
14:00+21n8115192 0.3 10221772
17:00+21n7935100 0.3 10231953
20:00+17nne484182 0.0 1025211
14 may, fri
fri1423:00+12ne345737 0.0 102651
02:00+10se22665 0.0 102725
05:00+10s33685 0.0 102851
08:00+16ssw45490 0.0 1027383
11:00+22sw5635100 0.0 1025994
14:00+26wsw68354 0.0 10232172
17:00+28w693022 0.0 10212869
20:00+23wsw354515 0.0 102071
15 may, sat
sat1523:00+19wsw365323 0.0 102084
02:00+17wsw355981 0.0 101965
05:00+16w237568 0.8 102048
08:00+21w47538 0.3 1019425
11:00+26w6933100 0.3 10182129
14:00+28w7112796 0.0 10163319
17:00+29w6122869 0.0 10153452
20:00+24w334232 0.0 101445
16 may, sun
sun1623:00+19w41168100 3.3 1014238
02:00+17w3570100 0.0 1013121
05:00+16w388678 0.0 1014325
08:00+19nnw58650 0.0 1016832
11:00+23nnw573945 0.0 10161765
14:00+25nnw57315 0.0 10172091
17:00+25nnw353064 0.0 10171868
20:00+22se224250 0.0 101615